| time (UTC) | temp F | wind direction | speed MPH | gust MPH | rain 1hr in | rain 24hr in | rain mn in | humidity % | barometer mb |
| 20260507075323 | 43 | 7 | 0.0 | 0.0 | 0.00 | 0.00 | 0.00 | 92 | 1011.6 |
| 20260507074820 | 43 | 7 | 0.0 | 0.0 | 0.00 | 0.00 | 0.00 | 93 | 1011.6 |
| 20260507074318 | 43 | 8 | 0.0 | 0.0 | 0.00 | 0.00 | 0.00 | 93 | 1011.6 |
| 20260507073815 | 43 | 7 | 0.0 | 0.0 | 0.00 | 0.00 | 0.00 | 92 | 1011.8 |
| 20260507073311 | 43 | 7 | 0.0 | 0.0 | 0.00 | 0.00 | 0.00 | 92 | 1011.8 |
| 20260507072809 | 43 | 7 | 0.0 | 0.0 | 0.00 | 0.00 | 0.00 | 92 | 1011.6 |
| 20260507072307 | 43 | 5 | 0.0 | 0.0 | 0.00 | 0.00 | 0.00 | 94 | 1011.6 |
| 20260507071803 | 43 | 5 | 0.0 | 0.0 | 0.00 | 0.00 | 0.00 | 92 | 1011.7 |
| 20260507071300 | 43 | 1 | 0.0 | 0.0 | 0.00 | 0.00 | 0.00 | 92 | 1011.7 |
| 20260507070756 | 43 | 3 | 0.0 | 0.0 | 0.00 | 0.00 | 0.00 | 90 | 1011.9 |
| 20260507070254 | 43 | 359 | 0.0 | 0.0 | 0.00 | 0.00 | 0.00 | 88 | 1011.9 |
| 20260507065750 | 44 | 2 | 0.0 | 0.0 | 0.00 | 0.00 | 0.00 | 86 | 1011.5 |
| 20260507065247 | 44 | 5 | 0.0 | 0.0 | 0.00 | 0.00 | 0.00 | 85 | 1011.7 |
| 20260507064744 | 44 | 3 | 0.0 | 1.0 | 0.00 | 0.00 | 0.00 | 82 | 1011.8 |
| 20260507064243 | 45 | 5 | 0.0 | 0.0 | 0.00 | 0.00 | 0.00 | 83 | 1011.6 |
| 20260507063740 | 46 | 4 | 0.0 | 1.0 | 0.00 | 0.00 | 0.00 | 81 | 1011.6 |
| 20260507063237 | 46 | 0 | 1.0 | 1.0 | 0.00 | 0.00 | 0.00 | 81 | 1011.6 |
| 20260507062734 | 47 | 8 | 0.0 | 0.0 | 0.00 | 0.00 | 0.00 | 77 | 1011.7 |
| 20260507062231 | 48 | 3 | 0.0 | 0.0 | 0.00 | 0.00 | 0.00 | 76 | 1011.5 |
| 20260507061730 | 48 | 325 | 3.0 | 3.0 | 0.00 | 0.00 | 0.00 | 72 | 1011.6 |
| 20260507061227 | 48 | 12 | 1.0 | 1.0 | 0.00 | 0.00 | 0.00 | 75 | 1011.7 |
| 20260507060725 | 48 | 8 | 1.0 | 1.0 | 0.00 | 0.00 | 0.00 | 81 | 1011.6 |
| 20260507060221 | 49 | 0 | 0.0 | 0.0 | 0.00 | 0.00 | 0.00 | 80 | 1011.6 |
| 20260507055717 | 49 | 6 | 0.0 | 1.0 | 0.00 | 0.00 | 0.00 | 71 | 1011.9 |
| 20260507055213 | 50 | 5 | 0.0 | 0.0 | 0.00 | 0.00 | 0.00 | 71 | 1011.7 |
| 20260507054709 | 50 | 359 | 1.0 | 1.0 | 0.00 | 0.00 | 0.00 | 68 | 1011.7 |
| 20260507054206 | 50 | 3 | 0.0 | 0.0 | 0.00 | 0.00 | 0.00 | 73 | 1011.7 |
| 20260507053704 | 50 | 327 | 4.0 | 5.0 | 0.00 | 0.00 | 0.00 | 68 | 1011.7 |
| 20260507053201 | 50 | 342 | 0.0 | 1.0 | 0.00 | 0.00 | 0.00 | 69 | 1011.7 |
| 20260507052700 | 50 | 347 | 3.0 | 3.0 | 0.00 | 0.00 | 0.00 | 69 | 1011.6 |
| 20260507052155 | 50 | 11 | 1.0 | 1.0 | 0.00 | 0.00 | 0.00 | 72 | 1011.8 |
| 20260507051654 | 50 | 2 | 1.0 | 1.0 | 0.00 | 0.00 | 0.00 | 71 | 1011.7 |
| 20260507051150 | 50 | 341 | 2.0 | 2.0 | 0.00 | 0.00 | 0.00 | 71 | 1011.8 |
| 20260507050647 | 50 | 20 | 0.0 | 1.0 | 0.00 | 0.00 | 0.00 | 75 | 1011.9 |
| 20260507050144 | 51 | 1 | 1.0 | 2.0 | 0.00 | 0.00 | 0.00 | 73 | 1011.9 |
| 20260507045641 | 51 | 336 | 3.0 | 5.0 | 0.00 | 0.00 | 0.00 | 73 | 1011.6 |
| 20260507045137 | 51 | 5 | 2.0 | 2.0 | 0.00 | 0.00 | 0.00 | 75 | 1011.6 |
| 20260507044634 | 51 | 15 | 1.0 | 1.0 | 0.00 | 0.00 | 0.00 | 75 | 1011.9 |
| 20260507044131 | 51 | 8 | 2.0 | 2.0 | 0.00 | 0.00 | 0.00 | 76 | 1011.6 |
| 20260507043627 | 51 | 6 | 0.0 | 0.0 | 0.00 | 0.00 | 0.00 | 86 | 1011.7 |
| 20260507043124 | 51 | 6 | 0.0 | 1.0 | 0.00 | 0.00 | 0.00 | 85 | 1011.6 |
| 20260507042620 | 51 | 6 | 0.0 | 1.0 | 0.00 | 0.00 | 0.00 | 83 | 1011.5 |
| 20260507042115 | 51 | 4 | 0.0 | 0.0 | 0.00 | 0.00 | 0.00 | 83 | 1011.4 |
| 20260507041613 | 51 | 5 | 0.0 | 0.0 | 0.00 | 0.00 | 0.00 | 82 | 1011.3 |
| 20260507041109 | 51 | 10 | 0.0 | 0.0 | 0.00 | 0.00 | 0.00 | 84 | 1011.3 |
| 20260507040607 | 51 | 7 | 0.0 | 1.0 | 0.00 | 0.00 | 0.00 | 83 | 1011.5 |
| 20260507035558 | 51 | 2 | 0.0 | 0.0 | 0.00 | 0.37 | 0.37 | 83 | 1011.5 |
| 20260507035055 | 51 | 24 | 0.0 | 1.0 | 0.00 | 0.37 | 0.37 | 81 | 1011.7 |
| 20260507034552 | 51 | 3 | 1.0 | 1.0 | 0.00 | 0.37 | 0.37 | 80 | 1011.2 |
| 20260507034050 | 51 | 341 | 3.0 | 3.0 | 0.00 | 0.37 | 0.37 | 81 | 1011.4 |
| 20260507033548 | 51 | 355 | 0.0 | 1.0 | 0.00 | 0.37 | 0.37 | 83 | 1011.1 |
| 20260507033044 | 50 | 221 | 5.0 | 6.0 | 0.00 | 0.37 | 0.37 | 87 | 1011.1 |
| 20260507032541 | 50 | 7 | 0.0 | 1.0 | 0.00 | 0.37 | 0.37 | 92 | 1011.1 |
| 20260507032038 | 50 | 13 | 0.0 | 0.0 | 0.00 | 0.37 | 0.37 | 92 | 1011.2 |
| 20260507031534 | 50 | 22 | 1.0 | 1.0 | 0.00 | 0.37 | 0.37 | 92 | 1011.0 |
| 20260507031031 | 50 | 6 | 0.0 | 0.0 | 0.00 | 0.37 | 0.37 | 91 | 1011.1 |
| 20260507030528 | 50 | 14 | 0.0 | 0.0 | 0.00 | 0.37 | 0.37 | 93 | 1011.4 |
| 20260507030026 | 50 | 4 | 0.0 | 0.0 | 0.00 | 0.37 | 0.37 | 94 | 1011.5 |
| 20260507025522 | 49 | 1 | 1.0 | 1.0 | 0.00 | 0.37 | 0.37 | 93 | 1011.3 |
| 20260507025020 | 49 | 357 | 1.0 | 1.0 | 0.00 | 0.37 | 0.37 | 94 | 1010.9 |
| 20260507024518 | 50 | 353 | 0.0 | 0.0 | 0.00 | 0.37 | 0.37 | 93 | 1010.9 |
| 20260507024014 | 50 | 351 | 1.0 | 1.0 | 0.00 | 0.37 | 0.37 | 93 | 1010.9 |
| 20260507023510 | 50 | 359 | 0.0 | 0.0 | 0.00 | 0.37 | 0.37 | 92 | 1011.1 |
| 20260507023008 | 51 | 5 | 0.0 | 0.0 | 0.00 | 0.37 | 0.37 | 91 | 1011.1 |
| 20260507022505 | 51 | 356 | 0.0 | 1.0 | 0.00 | 0.37 | 0.37 | 88 | 1011.0 |
| 20260507022000 | 51 | 13 | 0.0 | 1.0 | 0.00 | 0.37 | 0.37 | 89 | 1010.9 |
| 20260507021455 | 51 | 4 | 0.0 | 0.0 | 0.00 | 0.37 | 0.37 | 89 | 1011.2 |
| 20260507020953 | 52 | 4 | 0.0 | 0.0 | 0.00 | 0.37 | 0.37 | 89 | 1011.1 |
| 20260507020450 | 52 | 6 | 0.0 | 0.0 | 0.00 | 0.37 | 0.37 | 88 | 1011.3 |
| 20260507015947 | 53 | 6 | 0.0 | 0.0 | 0.00 | 0.37 | 0.37 | 88 | 1011.4 |
| 20260507015445 | 53 | 347 | 1.0 | 1.0 | 0.00 | 0.37 | 0.37 | 90 | 1011.3 |
| 20260507014942 | 53 | 354 | 1.0 | 1.0 | 0.00 | 0.37 | 0.37 | 89 | 1011.1 |
| 20260507014438 | 53 | 220 | 3.0 | 3.0 | 0.00 | 0.37 | 0.37 | 88 | 1011.3 |
| 20260507013935 | 53 | 26 | 1.0 | 1.0 | 0.00 | 0.37 | 0.37 | 86 | 1011.4 |
| 20260507013431 | 53 | 22 | 1.0 | 1.0 | 0.00 | 0.37 | 0.37 | 85 | 1011.4 |
| 20260507012929 | 53 | 1 | 1.0 | 2.0 | 0.00 | 0.37 | 0.37 | 85 | 1011.3 |
| 20260507012426 | 53 | 352 | 1.0 | 2.0 | 0.00 | 0.37 | 0.37 | 86 | 1011.3 |
| 20260507011922 | 53 | 7 | 0.0 | 0.0 | 0.00 | 0.37 | 0.37 | 86 | 1011.3 |
| 20260507011420 | 54 | 5 | 1.0 | 1.0 | 0.00 | 0.37 | 0.37 | 85 | 1011.0 |
| 20260507010919 | 54 | 336 | 1.0 | 1.0 | 0.00 | 0.37 | 0.37 | 85 | 1010.9 |
| 20260507010415 | 54 | 336 | 2.0 | 3.0 | 0.00 | 0.37 | 0.37 | 84 | 1011.3 |
| 20260507005912 | 54 | 353 | 2.0 | 2.0 | 0.00 | 0.37 | 0.37 | 85 | 1011.3 |
| 20260507005409 | 54 | 42 | 1.0 | 2.0 | 0.00 | 0.37 | 0.37 | 84 | 1011.2 |
| 20260507004906 | 54 | 3 | 1.0 | 1.0 | 0.00 | 0.37 | 0.37 | 84 | 1011.1 |
| 20260507004403 | 54 | 323 | 2.0 | 2.0 | 0.00 | 0.37 | 0.37 | 84 | 1010.8 |
| 20260507003900 | 55 | 5 | 1.0 | 1.0 | 0.00 | 0.37 | 0.37 | 85 | 1010.8 |
| 20260507003355 | 55 | 8 | 0.0 | 1.0 | 0.00 | 0.37 | 0.37 | 85 | 1010.8 |
| 20260507002851 | 55 | 6 | 2.0 | 2.0 | 0.00 | 0.37 | 0.37 | 85 | 1010.7 |
| 20260507002347 | 55 | 354 | 1.0 | 1.0 | 0.00 | 0.37 | 0.37 | 87 | 1010.5 |
| 20260507001844 | 55 | 8 | 1.0 | 1.0 | 0.00 | 0.37 | 0.37 | 86 | 1010.4 |
| 20260507001341 | 55 | 357 | 1.0 | 1.0 | 0.00 | 0.37 | 0.37 | 86 | 1010.2 |
| 20260507000837 | 55 | 344 | 1.0 | 2.0 | 0.00 | 0.37 | 0.37 | 86 | 1010.2 |
| 20260507000333 | 56 | 326 | 3.0 | 5.0 | 0.00 | 0.37 | 0.37 | 85 | 1009.8 |
| 20260506235830 | 56 | 295 | 1.0 | 1.0 | 0.00 | 0.37 | 0.37 | 85 | 1009.8 |
| 20260506235326 | 56 | 6 | 0.0 | 0.0 | 0.00 | 0.37 | 0.37 | 85 | 1009.7 |
| 20260506234822 | 56 | 345 | 3.0 | 7.0 | 0.00 | 0.37 | 0.37 | 85 | 1009.6 |
| 20260506234320 | 56 | 35 | 3.0 | 5.0 | 0.00 | 0.37 | 0.37 | 84 | 1009.4 |
| 20260506233818 | 56 | 5 | 0.0 | 1.0 | 0.00 | 0.37 | 0.37 | 86 | 1009.3 |
| 20260506233313 | 57 | 348 | 4.0 | 5.0 | 0.00 | 0.37 | 0.37 | 86 | 1009.4 |
| 20260506232810 | 57 | 358 | 4.0 | 5.0 | 0.00 | 0.37 | 0.37 | 85 | 1009.4 |
| 20260506232306 | 57 | 5 | 0.0 | 1.0 | 0.00 | 0.37 | 0.37 | 85 | 1009.2 |
| 20260506231803 | 57 | 15 | 0.0 | 1.0 | 0.00 | 0.37 | 0.37 | 85 | 1009.3 |
| 20260506231301 | 57 | 342 | 1.0 | 1.0 | 0.00 | 0.37 | 0.37 | 86 | 1009.1 |
| 20260506230758 | 58 | 211 | 3.0 | 5.0 | 0.00 | 0.37 | 0.37 | 86 | 1009.3 |
| 20260506230255 | 58 | 324 | 1.0 | 1.0 | 0.00 | 0.37 | 0.37 | 86 | 1009.1 |
| 20260506225751 | 58 | 353 | 0.0 | 0.0 | 0.00 | 0.37 | 0.37 | 85 | 1009.0 |
| 20260506225248 | 58 | 358 | 2.0 | 2.0 | 0.00 | 0.37 | 0.37 | 85 | 1008.9 |
| 20260506224744 | 58 | 358 | 2.0 | 2.0 | 0.00 | 0.37 | 0.37 | 86 | 1008.6 |
| 20260506224242 | 58 | 358 | 1.0 | 1.0 | 0.00 | 0.37 | 0.37 | 86 | 1008.7 |
| 20260506223738 | 58 | 345 | 3.0 | 6.0 | 0.00 | 0.37 | 0.37 | 86 | 1008.6 |
| 20260506223233 | 58 | 10 | 3.0 | 3.0 | 0.00 | 0.37 | 0.37 | 86 | 1008.6 |
| 20260506222731 | 59 | 26 | 4.0 | 6.0 | 0.00 | 0.37 | 0.37 | 86 | 1008.6 |
| 20260506222226 | 59 | 4 | 2.0 | 2.0 | 0.00 | 0.37 | 0.37 | 86 | 1008.7 |
| 20260506221725 | 59 | 355 | 0.0 | 0.0 | 0.00 | 0.37 | 0.37 | 86 | 1008.4 |
| 20260506221222 | 60 | 255 | 7.0 | 11.0 | 0.00 | 0.37 | 0.37 | 86 | 1008.2 |
| 20260506220719 | 60 | 335 | 3.0 | 5.0 | 0.00 | 0.37 | 0.37 | 85 | 1008.2 |
| 20260506220214 | 61 | 332 | 4.0 | 6.0 | 0.00 | 0.37 | 0.37 | 84 | 1008.0 |
| 20260506215711 | 61 | 348 | 1.0 | 1.0 | 0.00 | 0.37 | 0.37 | 84 | 1007.8 |
| 20260506215206 | 61 | 294 | 1.0 | 2.0 | 0.00 | 0.37 | 0.37 | 85 | 1008.0 |
| 20260506214703 | 61 | 330 | 2.0 | 2.0 | 0.00 | 0.37 | 0.37 | 85 | 1007.9 |
| 20260506214201 | 62 | 0 | 1.0 | 1.0 | 0.00 | 0.37 | 0.37 | 85 | 1007.8 |
| 20260506213659 | 62 | 4 | 0.0 | 0.0 | 0.00 | 0.37 | 0.37 | 85 | 1007.6 |
| 20260506213156 | 62 | 133 | 2.0 | 5.0 | 0.00 | 0.37 | 0.37 | 85 | 1007.4 |
| 20260506212653 | 62 | 2 | 1.0 | 1.0 | 0.00 | 0.37 | 0.37 | 84 | 1007.2 |
| 20260506212148 | 63 | 287 | 5.0 | 7.0 | 0.00 | 0.37 | 0.37 | 84 | 1007.3 |
| 20260506211644 | 63 | 42 | 2.0 | 2.0 | 0.00 | 0.37 | 0.37 | 86 | 1007.2 |
| 20260506211141 | 63 | 122 | 2.0 | 2.0 | 0.00 | 0.37 | 0.37 | 88 | 1007.0 |
| 20260506210637 | 62 | 345 | 2.0 | 3.0 | 0.00 | 0.37 | 0.37 | 88 | 1007.0 |
| 20260506210134 | 62 | 5 | 1.0 | 2.0 | 0.00 | 0.37 | 0.37 | 89 | 1006.9 |
| 20260506205631 | 63 | 335 | 1.0 | 2.0 | 0.00 | 0.37 | 0.37 | 88 | 1007.0 |
| 20260506205126 | 63 | 5 | 0.0 | 0.0 | 0.00 | 0.37 | 0.37 | 89 | 1006.7 |
| 20260506204624 | 63 | 4 | 0.0 | 0.0 | 0.00 | 0.37 | 0.37 | 88 | 1006.8 |
| 20260506204121 | 63 | 0 | 0.0 | 1.0 | 0.00 | 0.37 | 0.37 | 90 | 1006.7 |
| 20260506203619 | 63 | 345 | 0.0 | 0.0 | 0.00 | 0.37 | 0.37 | 90 | 1006.8 |
| 20260506203115 | 62 | 357 | 0.0 | 0.0 | 0.00 | 0.37 | 0.37 | 90 | 1006.6 |
| 20260506202614 | 63 | 345 | 2.0 | 2.0 | 0.00 | 0.37 | 0.37 | 89 | 1006.4 |
| 20260506202109 | 63 | 337 | 1.0 | 2.0 | 0.00 | 0.37 | 0.37 | 87 | 1006.4 |
| 20260506201607 | 64 | 14 | 0.0 | 1.0 | 0.00 | 0.37 | 0.37 | 88 | 1006.6 |
| 20260506201103 | 63 | 211 | 5.0 | 7.0 | 0.00 | 0.37 | 0.37 | 87 | 1006.6 |
| 20260506200559 | 63 | 354 | 3.0 | 3.0 | 0.00 | 0.37 | 0.37 | 89 | 1006.5 |
| 20260506200056 | 63 | 316 | 5.0 | 7.0 | 0.00 | 0.37 | 0.37 | 87 | 1006.4 |
| 20260506195553 | 63 | 9 | 3.0 | 5.0 | 0.00 | 0.37 | 0.37 | 88 | 1006.3 |
| 20260506195049 | 64 | 224 | 3.0 | 3.0 | 0.00 | 0.37 | 0.37 | 90 | 1006.2 |
| 20260506194547 | 64 | 6 | 1.0 | 1.0 | 0.00 | 0.37 | 0.37 | 92 | 1006.5 |
| 20260506194043 | 63 | 19 | 1.0 | 1.0 | 0.00 | 0.37 | 0.37 | 95 | 1006.4 |
| 20260506193541 | 62 | 0 | 1.0 | 1.0 | 0.00 | 0.37 | 0.37 | 94 | 1006.3 |
| 20260506193038 | 62 | 6 | 0.0 | 0.0 | 0.00 | 0.37 | 0.37 | 96 | 1006.5 |
| 20260506192535 | 62 | 3 | 0.0 | 0.0 | 0.07 | 0.37 | 0.37 | 96 | 1006.6 |
| 20260506192031 | 62 | 183 | 5.0 | 7.0 | 0.00 | 0.36 | 0.36 | 93 | 1006.6 |
| 20260506191528 | 63 | 348 | 2.0 | 2.0 | 0.00 | 0.36 | 0.36 | 92 | 1006.5 |
| 20260506191024 | 63 | 351 | 1.0 | 2.0 | 0.00 | 0.36 | 0.36 | 91 | 1006.3 |
| 20260506190521 | 63 | 294 | 1.0 | 2.0 | 0.00 | 0.36 | 0.36 | 89 | 1006.5 |
| 20260506190019 | 64 | 193 | 5.0 | 6.0 | 0.00 | 0.36 | 0.36 | 89 | 1006.4 |
| 20260506185515 | 65 | 352 | 1.0 | 2.0 | 0.00 | 0.36 | 0.36 | 88 | 1006.2 |
| 20260506185011 | 65 | 16 | 1.0 | 1.0 | 0.00 | 0.36 | 0.36 | 88 | 1006.3 |
| 20260506184509 | 65 | 354 | 1.0 | 1.0 | 0.00 | 0.36 | 0.36 | 87 | 1006.3 |
| 20260506184006 | 65 | 344 | 3.0 | 6.0 | 0.00 | 0.36 | 0.36 | 87 | 1006.4 |
| 20260506183502 | 66 | 70 | 2.0 | 2.0 | 0.00 | 0.36 | 0.36 | 87 | 1006.3 |
| 20260506182959 | 66 | 358 | 0.0 | 1.0 | 0.00 | 0.36 | 0.36 | 86 | 1006.3 |
| 20260506182456 | 65 | 277 | 2.0 | 2.0 | 0.00 | 0.36 | 0.36 | 89 | 1006.3 |
| 20260506181953 | 65 | 91 | 2.0 | 2.0 | 0.00 | 0.36 | 0.36 | 89 | 1006.1 |
| 20260506181451 | 64 | 311 | 3.0 | 5.0 | 0.00 | 0.36 | 0.36 | 89 | 1006.4 |
| 20260506180947 | 64 | 1 | 0.0 | 0.0 | 0.00 | 0.36 | 0.36 | 90 | 1006.2 |
| 20260506180444 | 63 | 2 | 1.0 | 1.0 | 0.00 | 0.36 | 0.36 | 90 | 1006.5 |
| 20260506175941 | 63 | 315 | 2.0 | 2.0 | 0.00 | 0.36 | 0.36 | 90 | 1006.4 |
| 20260506175438 | 64 | 246 | 3.0 | 5.0 | 0.00 | 0.36 | 0.36 | 89 | 1006.4 |
| 20260506174934 | 64 | 0 | 1.0 | 1.0 | 0.00 | 0.36 | 0.36 | 92 | 1006.4 |
| 20260506174432 | 64 | 58 | 1.0 | 2.0 | 0.00 | 0.36 | 0.36 | 92 | 1006.5 |
| 20260506173929 | 64 | 322 | 1.0 | 1.0 | 0.00 | 0.36 | 0.36 | 90 | 1006.5 |
| 20260506173426 | 64 | 26 | 1.0 | 1.0 | 0.00 | 0.36 | 0.36 | 91 | 1006.4 |
| 20260506172923 | 64 | 291 | 2.0 | 3.0 | 0.00 | 0.36 | 0.36 | 91 | 1006.6 |
| 20260506172420 | 65 | 330 | 2.0 | 3.0 | 0.00 | 0.36 | 0.36 | 92 | 1006.2 |
| 20260506171916 | 63 | 344 | 2.0 | 2.0 | 0.00 | 0.36 | 0.36 | 92 | 1006.5 |
| 20260506171414 | 63 | 348 | 2.0 | 2.0 | 0.00 | 0.36 | 0.36 | 94 | 1006.6 |
| 20260506170912 | 62 | 0 | 0.0 | 0.0 | 0.00 | 0.36 | 0.36 | 95 | 1006.6 |
| 20260506170408 | 62 | 8 | 0.0 | 1.0 | 0.00 | 0.36 | 0.36 | 96 | 1006.4 |
| 20260506165907 | 61 | 344 | 2.0 | 2.0 | 0.00 | 0.36 | 0.36 | 98 | 1006.4 |
| 20260506165405 | 60 | 4 | 0.0 | 0.0 | 0.00 | 0.36 | 0.36 | 98 | 1006.6 |
| 20260506164901 | 60 | 80 | 2.0 | 3.0 | 0.00 | 0.36 | 0.36 | 99 | 1006.9 |
| 20260506164357 | 60 | 333 | 1.0 | 2.0 | 0.00 | 0.36 | 0.36 | 99 | 1006.5 |
| 20260506163855 | 60 | 355 | 0.0 | 0.0 | 0.00 | 0.36 | 0.36 | 99 | 1006.7 |
| 20260506163349 | 60 | 30 | 0.0 | 1.0 | 0.00 | 0.36 | 0.36 | 99 | 1006.7 |
| 20260506162845 | 59 | 45 | 2.0 | 2.0 | 0.00 | 0.36 | 0.36 | 99 | 1006.6 |
| 20260506162343 | 59 | 1 | 0.0 | 0.0 | 0.00 | 0.36 | 0.36 | 99 | 1006.8 |
| 20260506161840 | 59 | 4 | 0.0 | 0.0 | 0.00 | 0.36 | 0.36 | 99 | 1006.8 |
| 20260506161337 | 58 | 349 | 0.0 | 1.0 | 0.00 | 0.36 | 0.36 | 99 | 1007.0 |
| 20260506160830 | 58 | 7 | 0.0 | 0.0 | 0.00 | 0.36 | 0.36 | 99 | 1006.9 |
| 20260506160326 | 58 | 84 | 0.0 | 1.0 | 0.00 | 0.36 | 0.36 | 99 | 1006.7 |
| 20260506155825 | 58 | 7 | 0.0 | 0.0 | 0.00 | 0.36 | 0.36 | 99 | 1006.7 |
| 20260506155321 | 58 | 5 | 0.0 | 0.0 | 0.00 | 0.36 | 0.36 | 99 | 1006.9 |
| 20260506153433 | 58 | 3 | 0.0 | 1.0 | 0.00 | 0.36 | 0.36 | 99 | 1006.8 |
| 20260506152930 | 58 | 347 | 1.0 | 1.0 | 0.00 | 0.36 | 0.36 | 99 | 1006.8 |
| 20260506152427 | 58 | 5 | 0.0 | 0.0 | 0.00 | 0.36 | 0.36 | 99 | 1006.5 |
| 20260506151926 | 58 | 2 | 0.0 | 0.0 | 0.00 | 0.36 | 0.36 | 99 | 1006.5 |
| 20260506151422 | 58 | 345 | 0.0 | 0.0 | 0.00 | 0.36 | 0.36 | 99 | 1006.4 |
| 20260506150920 | 58 | 12 | 0.0 | 0.0 | 0.00 | 0.36 | 0.36 | 99 | 1006.4 |
| 20260506150416 | 58 | 5 | 0.0 | 0.0 | 0.00 | 0.36 | 0.36 | 99 | 1006.4 |
| 20260506145913 | 57 | 8 | 0.0 | 0.0 | 0.00 | 0.36 | 0.36 | 99 | 1006.2 |
| 20260506145409 | 58 | 1 | 1.0 | 1.0 | 0.07 | 0.36 | 0.36 | 99 | 1006.6 |
| 20260506144907 | 57 | 4 | 0.0 | 1.0 | 0.07 | 0.36 | 0.36 | 99 | 1006.6 |
| 20260506144403 | 57 | 351 | 1.0 | 1.0 | 0.00 | 0.35 | 0.35 | 99 | 1006.6 |
| 20260506143902 | 57 | 3 | 0.0 | 0.0 | 0.05 | 0.35 | 0.35 | 99 | 1006.7 |
| 20260506143358 | 57 | 8 | 0.0 | 0.0 | 0.05 | 0.35 | 0.35 | 99 | 1006.7 |
| 20260506142857 | 57 | 3 | 0.0 | 0.0 | 0.00 | 0.34 | 0.34 | 99 | 1006.9 |
| 20260506142354 | 57 | 5 | 0.0 | 0.0 | 0.07 | 0.34 | 0.34 | 99 | 1006.9 |
| 20260506141852 | 57 | 8 | 0.0 | 0.0 | 0.12 | 0.34 | 0.34 | 99 | 1006.7 |
| 20260506141350 | 57 | 4 | 0.0 | 0.0 | 0.05 | 0.33 | 0.33 | 99 | 1006.8 |
| 20260506140848 | 57 | 5 | 0.0 | 0.0 | 0.00 | 0.32 | 0.32 | 99 | 1006.7 |
| 20260506140344 | 57 | 344 | 0.0 | 0.0 | 0.07 | 0.32 | 0.32 | 99 | 1006.8 |
| 20260506135841 | 57 | 1 | 0.0 | 0.0 | 0.07 | 0.32 | 0.32 | 99 | 1006.9 |
| 20260506135338 | 57 | 6 | 0.0 | 0.0 | 0.05 | 0.31 | 0.31 | 99 | 1006.7 |
| 20260506134834 | 57 | 8 | 0.0 | 0.0 | 0.12 | 0.31 | 0.31 | 99 | 1006.9 |
| 20260506134331 | 57 | 8 | 0.0 | 0.0 | 0.12 | 0.31 | 0.31 | 99 | 1006.6 |
| 20260506133828 | 57 | 6 | 0.0 | 0.0 | 0.12 | 0.29 | 0.29 | 99 | 1006.8 |
| 20260506133325 | 57 | 3 | 0.0 | 0.0 | 0.07 | 0.28 | 0.28 | 99 | 1006.6 |
| 20260506132822 | 57 | 354 | 0.0 | 0.0 | 0.05 | 0.27 | 0.27 | 99 | 1006.7 |
| 20260506132319 | 57 | 6 | 0.0 | 0.0 | 0.05 | 0.27 | 0.27 | 99 | 1006.8 |
| 20260506131817 | 57 | 6 | 0.0 | 0.0 | 0.00 | 0.26 | 0.26 | 99 | 1006.7 |
| 20260506131313 | 57 | 8 | 1.0 | 1.0 | 0.07 | 0.26 | 0.26 | 99 | 1006.8 |
| 20260506130810 | 57 | 9 | 0.0 | 0.0 | 0.07 | 0.26 | 0.26 | 99 | 1006.9 |
| 20260506130306 | 57 | 7 | 0.0 | 0.0 | 0.00 | 0.25 | 0.25 | 99 | 1007.1 |
| 20260506125804 | 57 | 7 | 0.0 | 0.0 | 0.05 | 0.25 | 0.25 | 99 | 1006.9 |
| 20260506125305 | 57 | 1 | 0.0 | 0.0 | 0.05 | 0.25 | 0.25 | 99 | 1006.9 |
| 20260506124800 | 57 | 2 | 0.0 | 0.0 | 0.07 | 0.24 | 0.24 | 99 | 1006.7 |
| 20260506124257 | 56 | 4 | 0.0 | 0.0 | 0.19 | 0.24 | 0.24 | 99 | 1006.7 |
| 20260506123755 | 57 | 9 | 0.0 | 0.0 | 0.24 | 0.23 | 0.23 | 99 | 1006.9 |
| 20260506123253 | 56 | 3 | 0.0 | 0.0 | 0.19 | 0.21 | 0.21 | 99 | 1007.0 |
| 20260506122750 | 56 | 7 | 0.0 | 0.0 | 0.17 | 0.20 | 0.20 | 99 | 1007.3 |
| 20260506122247 | 56 | 9 | 0.0 | 0.0 | 0.17 | 0.18 | 0.18 | 99 | 1007.3 |
| 20260506121745 | 56 | 6 | 0.0 | 0.0 | 0.19 | 0.17 | 0.17 | 99 | 1007.3 |
| 20260506121242 | 56 | 7 | 0.0 | 0.0 | 0.12 | 0.15 | 0.15 | 99 | 1007.5 |
| 20260506120739 | 56 | 13 | 0.0 | 0.0 | 0.12 | 0.14 | 0.14 | 99 | 1007.7 |
| 20260506120237 | 56 | 7 | 0.0 | 0.0 | 0.12 | 0.13 | 0.13 | 99 | 1007.9 |
| 20260506115734 | 56 | 7 | 0.0 | 0.0 | 0.12 | 0.12 | 0.12 | 99 | 1007.9 |
| 20260506115232 | 56 | 6 | 0.0 | 0.0 | 0.14 | 0.11 | 0.11 | 99 | 1007.6 |
| 20260506114729 | 56 | 4 | 0.0 | 0.0 | 0.12 | 0.10 | 0.10 | 99 | 1007.6 |
| 20260506114227 | 56 | 6 | 0.0 | 0.0 | 0.05 | 0.09 | 0.09 | 99 | 1007.3 |
| 20260506113725 | 56 | 8 | 0.0 | 0.0 | 0.07 | 0.08 | 0.08 | 99 | 1007.2 |
| 20260506113223 | 56 | 4 | 0.0 | 0.0 | 0.07 | 0.08 | 0.08 | 99 | 1007.1 |
| 20260506112719 | 56 | 0 | 0.0 | 0.0 | 0.00 | 0.07 | 0.07 | 99 | 1006.9 |
| 20260506112217 | 56 | 6 | 0.0 | 0.0 | 0.05 | 0.07 | 0.07 | 99 | 1006.9 |
| 20260506111714 | 56 | 7 | 0.0 | 0.0 | 0.12 | 0.07 | 0.07 | 99 | 1006.9 |
| 20260506111212 | 55 | 6 | 0.0 | 0.0 | 0.12 | 0.06 | 0.06 | 99 | 1006.8 |
| 20260506110708 | 56 | 7 | 0.0 | 0.0 | 0.05 | 0.05 | 0.05 | 99 | 1006.8 |
| 20260506110206 | 55 | 6 | 0.0 | 0.0 | 0.07 | 0.04 | 0.04 | 99 | 1006.8 |
| 20260506105703 | 55 | 7 | 0.0 | 0.0 | 0.07 | 0.04 | 0.04 | 99 | 1006.6 |
| 20260506105200 | 55 | 6 | 0.0 | 0.0 | 0.05 | 0.03 | 0.03 | 99 | 1006.5 |
| 20260506104658 | 55 | 7 | 0.0 | 0.0 | 0.12 | 0.03 | 0.03 | 99 | 1006.7 |
| 20260506104155 | 55 | 10 | 0.0 | 0.0 | 0.07 | 0.02 | 0.02 | 99 | 1006.6 |
| 20260506103652 | 56 | 13 | 0.0 | 0.0 | 0.00 | 0.01 | 0.01 | 99 | 1006.6 |
| 20260506103149 | 56 | 3 | 0.0 | 0.0 | 0.00 | 0.01 | 0.01 | 99 | 1006.4 |
| 20260506102647 | 56 | 5 | 0.0 | 0.0 | 0.00 | 0.01 | 0.01 | 99 | 1006.1 |
| 20260506102144 | 56 | 7 | 0.0 | 0.0 | 0.00 | 0.01 | 0.01 | 99 | 1006.4 |
| 20260506101641 | 56 | 8 | 0.0 | 0.0 | 0.05 | 0.01 | 0.01 | 99 | 1006.4 |
| 20260506101138 | 56 | 6 | 0.0 | 0.0 | 0.05 | 0.01 | 0.01 | 99 | 1006.4 |
| 20260506100636 | 56 | 359 | 0.0 | 0.0 | 0.00 | 0.00 | 0.00 | 99 | 1006.5 |
| 20260506100134 | 56 | 357 | 0.0 | 0.0 | 0.00 | 0.00 | 0.00 | 99 | 1006.5 |
| 20260506095632 | 56 | 5 | 0.0 | 0.0 | 0.00 | 0.00 | 0.00 | 99 | 1006.3 |
| 20260506095129 | 56 | 4 | 0.0 | 0.0 | 0.00 | 0.00 | 0.00 | 99 | 1006.3 |
| 20260506094626 | 56 | 3 | 0.0 | 0.0 | 0.00 | 0.00 | 0.00 | 99 | 1006.3 |
| 20260506094124 | 56 | 3 | 0.0 | 0.0 | 0.00 | 0.00 | 0.00 | 99 | 1006.1 |
| 20260506093622 | 56 | 6 | 0.0 | 0.0 | 0.00 | 0.00 | 0.00 | 99 | 1006.0 |
| 20260506093119 | 56 | 11 | 0.0 | 0.0 | 0.00 | 0.00 | 0.00 | 99 | 1006.1 |
| 20260506092617 | 56 | 5 | 0.0 | 0.0 | 0.00 | 0.00 | 0.00 | 99 | 1006.3 |
| 20260506092113 | 56 | 6 | 0.0 | 0.0 | 0.00 | 0.00 | 0.00 | 99 | 1006.3 |
| 20260506091611 | 56 | 6 | 0.0 | 0.0 | 0.00 | 0.00 | 0.00 | 99 | 1006.3 |
| 20260506091109 | 56 | 7 | 0.0 | 0.0 | 0.00 | 0.00 | 0.00 | 99 | 1006.4 |
| 20260506090607 | 56 | 7 | 0.0 | 0.0 | 0.00 | 0.00 | 0.00 | 99 | 1006.4 |
| 20260506085600 | 55 | 1 | 0.0 | 0.0 | 0.00 | 0.00 | 0.00 | 99 | 1006.5 |
| 20260506085056 | 55 | 1 | 0.0 | 0.0 | 0.00 | 0.00 | 0.00 | 99 | 1006.5 |
| 20260506084553 | 55 | 10 | 0.0 | 0.0 | 0.00 | 0.00 | 0.00 | 98 | 1006.4 |
| 20260506084049 | 55 | 4 | 0.0 | 0.0 | 0.00 | 0.00 | 0.00 | 98 | 1006.3 |
| 20260506083546 | 55 | 359 | 0.0 | 0.0 | 0.00 | 0.00 | 0.00 | 97 | 1006.4 |
| 20260506083044 | 56 | 13 | 0.0 | 0.0 | 0.00 | 0.00 | 0.00 | 96 | 1006.5 |
| 20260506082540 | 56 | 9 | 0.0 | 0.0 | 0.00 | 0.00 | 0.00 | 96 | 1006.5 |
| 20260506082036 | 56 | 2 | 0.0 | 0.0 | 0.00 | 0.00 | 0.00 | 96 | 1006.5 |
| 20260506081535 | 56 | 7 | 0.0 | 0.0 | 0.00 | 0.00 | 0.00 | 96 | 1006.3 |
| 20260506081032 | 56 | 6 | 0.0 | 0.0 | 0.00 | 0.00 | 0.00 | 96 | 1006.6 |
| 20260506080529 | 56 | 8 | 0.0 | 0.0 | 0.00 | 0.00 | 0.00 | 96 | 1006.3 |